Wahpeton, MN

9:52 AM CST on December 09, 2019 (GMT -0600)
Stern

Weather History for KBWP - October, 2019

Change the Weather History Date:

Thursday, October 3, 2019

  Actual Average (WUND) Record (WUND)
Temperature  
Mean Temperature 38 °F -  
Max Temperature 42 °F - - (-1)
Min Temperature 35 °F - - (-1)
Degree Days  
Heating Degree Days 26    
Moisture  
Dew Point 35 °F    
Average Humidity 82    
Maximum Humidity 93    
Minimum Humidity 70    
Precipitation  
Precipitation 0.00 in - - ()
Sea Level Pressure  
Sea Level Pressure 30.26 in    
Wind  
Wind Speed 9 mph ()    
Max Wind Speed 16 mph    
Max Gust Speed 22 mph    
Visibility 9.1 miles    
Events      
Averages and records for this station are not official NWS values.
T = Trace of Precipitation, MM = Missing Value Source: Averaged Metar Reports

Daily Weather History Graph

Daily Weather History Graph

Search for Another Location

Airport or City:

Astronomy

Oct. 03, 2019 Rise Set
Actual Time 7:27 AM CDT 7:02 PM CDT
Civil Twilight 6:57 AM CDT 7:32 PM CDT
Nautical Twilight 6:22 AM CDT 8:07 PM CDT
Astronomical Twilight 5:47 AM CDT 8:42 PM CDT
Moon 1:16 PM CDT (10/3) 10:25 PM CDT (10/3)
Length of Visible Light 12h 35m
Length of Day
11h 35m
Waxing Crescent, 30% of the Moon is Illuminated
Oct 3
Waxing Crescent
Oct 5
First Quarter
Oct 13
Full
Oct 21
Last Quarter
Oct 27
New

Hourly Weather History & Observations

Time (CDT) Temp. Windchill Dew Point Humidity Pressure Visibility Wind Dir Wind Speed Gust Speed Precip Events Conditions
12:15 AM 41.0 °F 35.8 °F 37.4 °F 87% 30.09 in 5.0 mi NNW 8.1 mph - N/A   Unknown
12:35 AM 41.0 °F 36.4 °F 39.2 °F 93% 30.09 in 5.0 mi NNW 6.9 mph - N/A   Unknown
12:55 AM 41.0 °F 35.8 °F 37.4 °F 87% 30.10 in 10.0 mi NNW 8.1 mph - N/A   Unknown
1:15 AM 41.0 °F 35.2 °F 37.4 °F 87% 30.10 in 7.0 mi NNW 9.2 mph - N/A   Unknown
1:35 AM 41.0 °F 34.7 °F 37.4 °F 87% 30.10 in 10.0 mi NNW 10.4 mph - N/A   Unknown
1:55 AM 41.0 °F 35.2 °F 37.4 °F 87% 30.11 in 10.0 mi NNW 9.2 mph - N/A   Unknown
2:15 AM 41.0 °F 34.7 °F 37.4 °F 87% 30.11 in 7.0 mi NW 10.4 mph - N/A   Unknown
2:35 AM 41.0 °F 34.7 °F 37.4 °F 87% 30.11 in 3.0 mi NW 10.4 mph - N/A   Unknown
2:55 AM 41.0 °F 34.7 °F 37.4 °F 87% 30.12 in 3.0 mi NW 10.4 mph - N/A   Unknown
3:15 AM 41.0 °F 34.7 °F 37.4 °F 87% 30.12 in 5.0 mi NW 10.4 mph - N/A   Unknown
3:35 AM 39.2 °F 31.2 °F 37.4 °F 93% 30.12 in 10.0 mi NW 13.8 mph - N/A   Unknown
3:55 AM 39.2 °F 31.6 °F 37.4 °F 93% 30.12 in 7.0 mi NW 12.7 mph 16.1 mph N/A   Unknown
4:15 AM 39.2 °F 32.0 °F 37.4 °F 93% 30.13 in 2.5 mi NW 11.5 mph - N/A   Unknown
4:35 AM 39.2 °F 32.5 °F 37.4 °F 93% 30.13 in 10.0 mi NW 10.4 mph - N/A   Unknown
4:55 AM 39.2 °F 32.5 °F 35.6 °F 87% 30.14 in 10.0 mi NW 10.4 mph - N/A   Unknown
5:15 AM 39.2 °F 31.2 °F 35.6 °F 87% 30.15 in 10.0 mi NW 13.8 mph - N/A   Unknown
5:35 AM 37.4 °F 29.3 °F 35.6 °F 93% 30.15 in 10.0 mi NW 12.7 mph - N/A   Unknown
5:55 AM 37.4 °F 28.9 °F 35.6 °F 93% 30.16 in 10.0 mi NW 13.8 mph - N/A   Unknown
6:15 AM 37.4 °F 29.8 °F 33.8 °F 87% 30.17 in 10.0 mi NW 11.5 mph - N/A   Unknown
6:35 AM 37.4 °F 29.8 °F 35.6 °F 93% 30.18 in 10.0 mi NW 11.5 mph - N/A   Unknown
6:55 AM 37.4 °F 28.2 °F 33.8 °F 87% 30.18 in 10.0 mi WNW 16.1 mph - N/A   Unknown
7:15 AM 35.6 °F 27.1 °F 33.8 °F 93% 30.19 in 10.0 mi WNW 12.7 mph - N/A   Unknown
7:35 AM 37.4 °F 29.8 °F 33.8 °F 87% 30.19 in 10.0 mi WNW 11.5 mph - N/A   Unknown
7:55 AM 37.4 °F 28.2 °F 33.8 °F 87% 30.20 in 10.0 mi WNW 16.1 mph - N/A   Unknown
8:15 AM 35.6 °F 25.9 °F 33.8 °F 93% 30.21 in 10.0 mi WNW 16.1 mph 21.9 mph N/A   Unknown
8:35 AM 35.6 °F 26.2 °F 33.8 °F 93% 30.22 in 10.0 mi NW 15.0 mph - N/A   Unknown
8:55 AM 35.6 °F 25.9 °F 33.8 °F 93% 30.23 in 10.0 mi WNW 16.1 mph - N/A   Unknown
9:15 AM 35.6 °F 26.2 °F 33.8 °F 93% 30.23 in 7.0 mi WNW 15.0 mph 19.6 mph N/A   Unknown
9:35 AM 37.4 °F 28.9 °F 33.8 °F 87% 30.24 in 2.5 mi NW 13.8 mph - N/A   Unknown
9:55 AM 37.4 °F 29.3 °F 33.8 °F 87% 30.25 in 4.0 mi NW 12.7 mph - N/A   Unknown
10:15 AM 37.4 °F 28.9 °F 33.8 °F 87% 30.26 in 10.0 mi NNW 13.8 mph 17.3 mph N/A   Unknown
10:35 AM 37.4 °F 29.3 °F 33.8 °F 87% 30.26 in 10.0 mi NW 12.7 mph 17.3 mph N/A   Unknown
10:55 AM 37.4 °F 29.8 °F 33.8 °F 87% 30.27 in 10.0 mi NW 11.5 mph 16.1 mph N/A   Unknown
11:15 AM 39.2 °F 33.0 °F 33.8 °F 81% 30.28 in 10.0 mi NNW 9.2 mph - N/A   Unknown
11:35 AM 39.2 °F 33.0 °F 33.8 °F 81% 30.28 in 10.0 mi NW 9.2 mph 18.4 mph N/A   Unknown
11:55 AM 41.0 °F 34.7 °F 33.8 °F 76% 30.29 in 10.0 mi NW 10.4 mph - N/A   Unknown
12:15 PM 41.0 °F 35.8 °F 33.8 °F 76% 30.30 in 10.0 mi NW 8.1 mph - N/A   Unknown
12:35 PM 41.0 °F 36.4 °F 33.8 °F 76% 30.30 in 10.0 mi NW 6.9 mph - N/A   Unknown
12:55 PM 41.0 °F 34.7 °F 33.8 °F 76% 30.30 in 10.0 mi WNW 10.4 mph - N/A   Unknown
1:15 PM 41.0 °F 34.7 °F 33.8 °F 76% 30.31 in 10.0 mi NW 10.4 mph - N/A   Unknown
1:35 PM 41.0 °F 35.2 °F 33.8 °F 76% 30.31 in 10.0 mi NNW 9.2 mph - N/A   Unknown
1:55 PM 42.8 °F 37.0 °F 35.6 °F 76% 30.31 in 10.0 mi NW 10.4 mph - N/A   Unknown
2:15 PM 42.8 °F 38.0 °F 33.8 °F 70% 30.31 in 10.0 mi NNW 8.1 mph - N/A   Unknown
2:35 PM 42.8 °F 38.0 °F 33.8 °F 70% 30.31 in 10.0 mi NW 8.1 mph - N/A   Unknown
2:55 PM 42.8 °F 38.0 °F 35.6 °F 76% 30.31 in 10.0 mi NW 8.1 mph - N/A   Unknown
3:15 PM 42.8 °F 38.0 °F 35.6 °F 76% 30.31 in 10.0 mi NW 8.1 mph - N/A   Unknown
3:35 PM 42.8 °F 37.5 °F 35.6 °F 76% 30.32 in 10.0 mi NNW 9.2 mph - N/A   Unknown
3:55 PM 42.8 °F 38.0 °F 35.6 °F 76% 30.33 in 10.0 mi NW 8.1 mph - N/A   Unknown
4:15 PM 42.8 °F 37.5 °F 35.6 °F 76% 30.33 in 10.0 mi NNW 9.2 mph - N/A   Unknown
4:35 PM 42.8 °F 38.0 °F 35.6 °F 76% 30.33 in 10.0 mi NNW 8.1 mph - N/A   Unknown
4:55 PM 42.8 °F 41.1 °F 33.8 °F 70% 30.33 in 10.0 mi NW 3.5 mph - N/A   Unknown
5:15 PM 42.8 °F 41.1 °F 33.8 °F 70% 30.35 in 10.0 mi NW 3.5 mph - N/A   Unknown
5:35 PM 42.8 °F 40.1 °F 33.8 °F 70% 30.35 in 10.0 mi NW 4.6 mph - N/A   Unknown
5:55 PM 42.8 °F 41.1 °F 35.6 °F 76% 30.35 in 10.0 mi North 3.5 mph - N/A   Unknown
6:15 PM 42.8 °F 39.3 °F 35.6 °F 76% 30.35 in 10.0 mi NNW 5.8 mph - N/A   Unknown
6:35 PM 42.8 °F 40.1 °F 35.6 °F 76% 30.35 in 10.0 mi NNE 4.6 mph - N/A   Unknown
6:55 PM 42.8 °F 40.1 °F 35.6 °F 76% 30.35 in 10.0 mi NNE 4.6 mph - N/A   Unknown
7:15 PM 42.8 °F - 35.6 °F 76% 30.36 in 10.0 mi Calm Calm - N/A   Unknown
7:35 PM 42.8 °F 40.1 °F 35.6 °F 76% 30.36 in 10.0 mi NE 4.6 mph - N/A   Unknown
7:55 PM 42.8 °F - 35.6 °F 76% 30.37 in 10.0 mi Calm Calm - N/A   Unknown
8:15 PM 42.8 °F 41.1 °F 35.6 °F 76% 30.37 in 10.0 mi ENE 3.5 mph - N/A   Unknown
8:35 PM 42.8 °F - 35.6 °F 76% 30.38 in 10.0 mi Calm Calm - N/A   Unknown
8:55 PM 42.8 °F - 35.6 °F 76% 30.38 in 10.0 mi Calm Calm - N/A   Unknown
9:15 PM 41.0 °F - 35.6 °F 81% 30.39 in 10.0 mi Calm Calm - N/A   Unknown
9:35 PM 41.0 °F - 35.6 °F 81% 30.39 in 10.0 mi Calm Calm - N/A   Unknown
9:55 PM 41.0 °F - 35.6 °F 81% 30.40 in 10.0 mi Calm Calm - N/A   Unknown
10:15 PM 41.0 °F - 35.6 °F 81% 30.40 in 10.0 mi Calm Calm - N/A   Unknown
10:35 PM 41.0 °F - 35.6 °F 81% 30.40 in 10.0 mi Calm Calm - N/A   Unknown
10:55 PM 41.0 °F - 35.6 °F 81% 30.41 in 10.0 mi Calm Calm - N/A   Unknown
11:15 PM 41.0 °F 36.4 °F 35.6 °F 81% 30.41 in 10.0 mi NE 6.9 mph - N/A   Unknown
11:35 PM 41.0 °F 35.2 °F 35.6 °F 81% 30.40 in 10.0 mi ENE 9.2 mph - N/A   Unknown
11:55 PM 41.0 °F 38.0 °F 35.6 °F 81% 30.40 in 10.0 mi East 4.6 mph - N/A   Unknown